Location: Suzhou
(31.3110°N, 120.6180°E)
Time: 17:56:10
(UTC+08:00)

NOAA 15 - Pass Details

Date: 26 May 2024
Orbit: 796 x 810 km, 98.6° (Epoch: 13 June)

Event Time Altitude Azimuth Distance (km) Brightness Sun altitude
Rises 19:53:14 0° 200° (SSW) 3,285 7.6 -11.8°
Reaches altitude 10° 19:56:06 10° 216° (SW) 2,358 7.1 -12.4°
Maximum altitude 19:59:57 21° 264° (W) 1,730 7.0 -13.0°
Drops below altitude 10° 20:03:49 10° 312° (NW) 2,368 8.5 -13.7°
Sets 20:06:44 0° 329° (NNW) 3,302 9.1 -14.2°
